Flag for U.S.A. Weather past 2 weeks in Norwalk, California, U.S.A.

Now
86 °F

Sunny.


Feels Like: 83 °F
Forecast: 61 / 85 °F
Wind: 6 mph from Southwest

Location: Fullerton Municipal Airport

Current Time: Oct 24, 2014 at 4:23:18 PM

Latest Report: Oct 24, 2014 at 3:53 PM


Visibility: 10 mi

Pressure: 29.91 "Hg

Humidity: 20%

Dew point: 40 °F

Location of NorwalkLocation

Historic Weather in Norwalk — Graph

°F

Norwalk temperature yesterday

Maximum temperature yesterday: 87 °F (at 2:53 PM)
Minimum temperature yesterday: 59 °F (at 5:53 AM)
Average temperature yesterday: 72 °F

Past Weeks' High & Low Weather Summary

 TemperatureHumidityPressure
High88 °F (Oct 24, 2:53 PM)87% (Oct 13, 3:53 AM)30.01 "Hg (Oct 13, 3:53 AM)
Low57 °F (Oct 24, 6:53 AM)13% (Oct 24, 2:53 PM)29.81 "Hg (Oct 19, 4:53 PM)
Average71 °F67%29.92 "Hg
* Reported Oct 9 2:53 PM — Oct 24 2:53 PM, Norwalk, Weather by CustomWeather, © 2014

Note: Actual official high and low records may vary slightly from our data, if they occured in-between our weather recording intervals... More about our weather records

Advertising

Norwalk weather history for previous 24 hours

 ConditionsComfort  
Time TempWeatherWind HumidityBarometerVisibility
2:53 PM
Oct 24
88 °FSunny.7 mph13%29.91 "Hg10 mi
1:53 PM87 °FSunny.7 mph25%29.92 "Hg10 mi
12:53 PM87 °FSunny.N/A24%29.94 "Hg10 mi
11:53 AM84 °FSunny.No wind26%29.96 "Hg10 mi
10:53 AM81 °FSunny.5 mph27%29.97 "Hg10 mi
9:53 AM76 °FSunny.6 mph35%29.98 "Hg10 mi
8:53 AM70 °FSunny.6 mph47%29.98 "Hg10 mi
7:53 AM61 °FClear.No wind75%29.97 "Hg10 mi
6:53 AM57 °FClear.No wind83%29.96 "Hg10 mi
5:53 AM58 °FClear.No wind84%29.94 "Hg10 mi
4:53 AM60 °FCool.No wind72%29.94 "Hg10 mi
3:53 AM61 °FClear.3 mph70%29.94 "Hg10 mi
2:53 AM61 °FClear.No wind78%29.95 "Hg10 mi
1:53 AM62 °FCool.No wind78%29.95 "Hg10 mi
12:53 AM64 °FClear.No wind73%29.96 "Hg10 mi
11:53 PM
Oct 23
65 °FMild.No wind68%29.94 "Hg10 mi
10:53 PM68 °FMild.No wind61%29.94 "Hg10 mi
9:53 PM70 °FClear.No wind59%29.93 "Hg10 mi
8:53 PM72 °FClear.No wind57%29.92 "Hg10 mi
7:53 PM74 °FClear.No wind52%29.91 "Hg10 mi
6:53 PM76 °FSunny.No wind40%29.90 "Hg10 mi
5:53 PM79 °FSunny.5 mph41%29.89 "Hg10 mi
4:53 PM82 °FPleasantly warm.5 mph37%29.89 "Hg10 mi
Weather by CustomWeather, © 2014

See weather overviewHow to use our weather pages